Regional Weather Roundup
Issued by NWS

Home | Current Version | Previous Version | Graphics & Text | Print | Product List | Glossary On
Versions: 1 2 3 4 5 6 7 8 9 10 11 12 13 14 15 16 17 18 19 20 21 22 23 24 25 26 27 28 29 30 31 32 33 34 35 36 37 38 39 40 41 42 43 44 45 46 47 48 49 50
768
ASUS44 KLIX 221110
RWRLA
LOUISIANA WEATHER ROUNDUP
NATIONAL WEATHER SERVICE NEW ORLEANS LA
600 AM CDT WED OCT 22 2014

NOTE: "FAIR" INDICATES FEW OR NO CLOUDS BELOW 12,000 FEET WITH NO
      SIGNIFICANT WEATHER AND/OR OBSTRUCTIONS TO VISIBILITY.
      SKY/WX - SKY CONDITION AND SIGNIFICANT WEATHER.
      TMP - AIR TEMPERATURE.    DP   - DEWPOINT TEMPERATURE.
      RH  - RELATIVE HUMIDITY.  PRES - PRESSURE.
      HX  - HEAT INDEX.         WCI  - WIND CHILL INDEX.

*  THESE STATIONS ARE NOT NWS OR FAA STATIONS AND ARE NOT UNDER
   NWS QUALITY CONTROL.

LAZ040-048-061>063-065-066-069-221200-
SOUTHEAST LOUISIANA

CITY           SKY/WX    TMP DP  RH WIND       PRES   REMARKS
N.O. AUDUBON   NOT AVBL
N.O. INTL ARPT CLEAR     67  59  75 NE8       30.04R
N.O. LAKEFRONT CLEAR     69  61  75 NE16      30.04S
N.O. DOWNTOWN* FAIR      66  55  68 NE6       30.04S
SLIDELL        CLEAR     53  50  89 N3        30.05R
BATON ROUGE    CLEAR     58  55  90 NE7       30.06R
BOOTHVILLE     CLEAR     72  63  73 NE8       30.02R
BELLE CHASSE   CLEAR     56  53  90 NE3       30.03R
BOGALUSA*        N/A     53  50  90 CALM      30.08S FOG
NEW ROADS*     FAIR      55  54  98 CALM      30.07R FOG
GONZALES*      FAIR      58  58 100 CALM      30.05R
HAMMOND*       CLEAR     59  54  82 NE3       30.08R
HOUMA*         CLEAR     60  59  96 N3        30.03R FOG
PORT FOURCHON* SUNNY     68  64  88 NE10      30.05R

$$

LAZ041-044-053-054-221200-
SOUTHWEST LOUISIANA

CITY           SKY/WX    TMP DP  RH WIND       PRES   REMARKS
LAKE CHARLES   CLEAR     59  57  93 NE8       30.05R
LAFAYETTE      CLEAR     58  57  97 NE5       30.05R
PATTERSON      CLEAR     59  57  94 NE3       30.06S
SALT POINT       N/A     63  59  87 CALM      30.03R
NEW IBERIA     CLEAR     62  58  86 NE6       30.05S
CHENAULT AIRPK CLEAR     59  57  94 CALM      30.06R

$$

LAZ027-028-221200-
CENTRAL LOUISIANA

CITY           SKY/WX    TMP DP  RH WIND       PRES   REMARKS
FORT POLK      MOCLDY    62  59  90 NE6       30.07R
ALEXANDRIA INT CLEAR     59  57  93 NE5       30.06R
ALEXANDRIA     CLEAR     53  52  96 CALM      30.08R FOG

$$

LAZ001-002-221200-
NORTHWEST LOUISIANA

CITY           SKY/WX    TMP DP  RH WIND       PRES   REMARKS
SHREVEPORT     CLEAR     59  57  93 E3        30.09S
BARKSDALE AFB  CLEAR     59  55  87 CALM      30.10R
DTN SHREVEPORT CLEAR     56  54  93 CALM      30.10R FOG

$$

LAZ014-016-221200-
NORTHEAST LOUISIANA

CITY           SKY/WX    TMP DP  RH WIND       PRES   REMARKS
MONROE         CLEAR     53  50  89 CALM      30.12R
TALLULAH       PTCLDY    49  47  93 CALM      30.11R

$$




USA.gov is the U.S. government's official web portal to all federal, state and local government web resources and services.